| time (UTC) | temp C | wind direction | speed KPH | gust KPH | rain 1hr cm | rain 24hr cm | rain mn cm | humidity % | barometer mb |
| 20260502183004 | 7 | 141 | 1.6 | 6.4 | 0.00 | 0.00 | 0.00 | 50 | 1024.9 |
| 20260502181503 | 7 | 126 | 1.6 | 4.8 | 0.00 | 0.00 | 0.00 | 54 | 1024.9 |
| 20260502163049 | 6 | 96 | 1.6 | 4.8 | 0.00 | 0.00 | 0.00 | 63 | 1025.2 |
| 20260502161551 | 6 | 97 | 1.6 | 4.8 | 0.00 | 0.00 | 0.00 | 62 | 1025.4 |
| 20260502151535 | 5 | 29 | 1.6 | 4.8 | 0.00 | 0.00 | 0.00 | 71 | 1025.5 |
| 20260502123011 | 0 | 131 | 0.0 | 1.6 | 0.00 | 0.00 | 0.00 | 87 | 1026.0 |
| 20260502121602 | -1 | 176 | 0.0 | 1.6 | 0.00 | 0.00 | 0.00 | 92 | 1026.1 |
| 20260502120109 | -1 | 146 | 0.0 | 0.0 | 0.00 | 0.00 | 0.00 | 94 | 1026.2 |
| 20260502114629 | -2 | 146 | 0.0 | 0.0 | 0.00 | 0.00 | 0.00 | 95 | 1026.2 |
| 20260502113050 | -3 | 146 | 0.0 | 0.0 | 0.00 | 0.00 | 0.00 | 95 | 1026.1 |
| 20260502111550 | -4 | 146 | 0.0 | 0.0 | 0.00 | 0.00 | 0.00 | 95 | 1026.0 |
| 20260502110049 | -5 | 146 | 0.0 | 0.0 | 0.00 | 0.00 | 0.00 | 95 | 1026.0 |
| 20260502104548 | -5 | 146 | 0.0 | 0.0 | 0.00 | 0.00 | 0.00 | 95 | 1025.9 |
| 20260502103045 | -6 | 146 | 0.0 | 0.0 | 0.00 | 0.00 | 0.00 | 95 | 1026.0 |
| 20260502101601 | -6 | 146 | 0.0 | 0.0 | 0.00 | 0.00 | 0.00 | 95 | 1025.9 |
| 20260502071529 | -4 | 146 | 0.0 | 0.0 | 0.00 | 0.00 | 0.00 | 95 | 1025.6 |
| 20260502070033 | -4 | 146 | 0.0 | 0.0 | 0.00 | 0.00 | 0.00 | 95 | 1025.6 |
| 20260502064540 | -4 | 146 | 0.0 | 0.0 | 0.00 | 0.00 | 0.00 | 95 | 1025.6 |
| 20260502063025 | -4 | 146 | 0.0 | 0.0 | 0.00 | 0.00 | 0.00 | 95 | 1025.6 |
| 20260502061523 | -4 | 146 | 0.0 | 0.0 | 0.00 | 0.00 | 0.00 | 94 | 1025.5 |
| 20260502060030 | -3 | 146 | 0.0 | 0.0 | 0.00 | 0.00 | 0.00 | 94 | 1025.6 |
| 20260502054521 | -3 | 146 | 0.0 | 0.0 | 0.00 | 0.00 | 0.00 | 94 | 1025.7 |
| 20260502053018 | -3 | 146 | 0.0 | 0.0 | 0.00 | 0.00 | 0.00 | 94 | 1025.6 |
| 20260502051516 | -3 | 146 | 0.0 | 0.0 | 0.00 | 0.00 | 0.00 | 93 | 1025.6 |
| 20260502050019 | -3 | 146 | 0.0 | 0.0 | 0.00 | 0.00 | 0.00 | 93 | 1025.5 |
| 20260502044513 | -3 | 146 | 0.0 | 0.0 | 0.00 | 0.00 | 0.00 | 92 | 1025.5 |
| 20260502043010 | -2 | 146 | 0.0 | 0.0 | 0.00 | 0.00 | 0.00 | 93 | 1025.4 |
| 20260502041509 | -2 | 146 | 0.0 | 0.0 | 0.00 | 0.00 | 0.00 | 92 | 1025.5 |
| 20260502040006 | -2 | 146 | 0.0 | 0.0 | 0.00 | 0.00 | 0.00 | 91 | 1025.6 |
| 20260502034504 | -2 | 146 | 0.0 | 0.0 | 0.00 | 0.00 | 0.00 | 90 | 1025.5 |
| 20260502033001 | -1 | 146 | 0.0 | 0.0 | 0.00 | 0.00 | 0.00 | 90 | 1025.5 |
| 20260502031501 | -1 | 146 | 0.0 | 0.0 | 0.00 | 0.00 | 0.00 | 90 | 1025.4 |
| 20260502030001 | -1 | 146 | 0.0 | 0.0 | 0.00 | 0.00 | 0.00 | 89 | 1025.5 |
| 20260502024602 | -1 | 146 | 0.0 | 0.0 | 0.00 | 0.00 | 0.00 | 87 | 1025.5 |
| 20260502023106 | 0 | 146 | 0.0 | 0.0 | 0.00 | 0.00 | 0.00 | 86 | 1025.5 |
| 20260502021558 | 0 | 146 | 0.0 | 0.0 | 0.00 | 0.00 | 0.00 | 84 | 1025.6 |
| 20260502020058 | 0 | 146 | 0.0 | 0.0 | 0.00 | 0.00 | 0.00 | 83 | 1025.5 |
| 20260502014556 | 1 | 146 | 0.0 | 0.0 | 0.00 | 0.00 | 0.00 | 81 | 1025.4 |
| 20260502013059 | 1 | 146 | 0.0 | 0.0 | 0.00 | 0.00 | 0.00 | 80 | 1025.3 |
| 20260502011559 | 1 | 160 | 0.0 | 0.0 | 0.00 | 0.00 | 0.00 | 80 | 1025.2 |
| 20260502010106 | 1 | 123 | 0.0 | 1.6 | 0.00 | 0.00 | 0.00 | 80 | 1025.1 |
| 20260502004552 | 2 | 129 | 0.0 | 1.6 | 0.00 | 0.00 | 0.00 | 79 | 1025.1 |
| 20260502003050 | 2 | 125 | 0.0 | 3.2 | 0.00 | 0.00 | 0.00 | 77 | 1025.0 |
| 20260502001549 | 2 | 104 | 0.0 | 1.6 | 0.00 | 0.00 | 0.00 | 77 | 1024.9 |
| 20260502000050 | 2 | 124 | 0.0 | 1.6 | 0.00 | 0.00 | 0.00 | 75 | 1024.8 |
| 20260501234548 | 2 | 141 | 0.0 | 1.6 | 0.00 | 0.00 | 0.00 | 74 | 1024.7 |
| 20260501233046 | 2 | 123 | 0.0 | 1.6 | 0.00 | 0.00 | 0.00 | 74 | 1024.7 |
| 20260501231545 | 3 | 117 | 0.0 | 3.2 | 0.00 | 0.00 | 0.00 | 70 | 1024.6 |
| 20260501230045 | 3 | 117 | 0.0 | 1.6 | 0.00 | 0.00 | 0.00 | 70 | 1024.6 |
| 20260501224544 | 3 | 97 | 0.0 | 1.6 | 0.00 | 0.00 | 0.00 | 70 | 1024.7 |
| 20260501223145 | 3 | 129 | 0.0 | 1.6 | 0.00 | 0.00 | 0.00 | 70 | 1024.6 |
| 20260501221541 | 3 | 98 | 0.0 | 4.8 | 0.00 | 0.00 | 0.00 | 71 | 1024.6 |
| 20260501220040 | 3 | 114 | 0.0 | 3.2 | 0.00 | 0.00 | 0.00 | 69 | 1024.3 |
| 20260501214539 | 3 | 148 | 0.0 | 1.6 | 0.00 | 0.00 | 0.00 | 66 | 1024.3 |
| 20260501213037 | 3 | 97 | 0.0 | 4.8 | 0.00 | 0.00 | 0.00 | 68 | 1024.1 |
| 20260501211537 | 3 | 89 | 1.6 | 4.8 | 0.00 | 0.00 | 0.00 | 66 | 1023.9 |
| 20260501210034 | 3 | 99 | 1.6 | 4.8 | 0.00 | 0.00 | 0.00 | 65 | 1023.9 |
| 20260501204546 | 4 | 77 | 1.6 | 4.8 | 0.00 | 0.00 | 0.00 | 66 | 1023.9 |
| 20260501203031 | 5 | 126 | 0.0 | 4.8 | 0.00 | 0.00 | 0.00 | 63 | 1023.7 |
| 20260501201532 | 5 | 110 | 0.0 | 6.4 | 0.00 | 0.00 | 0.00 | 62 | 1023.6 |
| 20260501200032 | 5 | 100 | 1.6 | 4.8 | 0.00 | 0.00 | 0.00 | 59 | 1023.6 |
| 20260501194530 | 6 | 92 | 0.0 | 6.4 | 0.00 | 0.00 | 0.00 | 59 | 1023.5 |
| 20260501193028 | 6 | 191 | 0.0 | 6.4 | 0.00 | 0.00 | 0.00 | 55 | 1023.5 |
| 20260501191534 | 6 | 172 | 0.0 | 4.8 | 0.00 | 0.00 | 0.00 | 52 | 1023.6 |
| 20260501190027 | 5 | 177 | 1.6 | 6.4 | 0.00 | 0.00 | 0.00 | 50 | 1023.4 |
| 20260501184540 | 6 | 96 | 1.6 | 6.4 | 0.00 | 0.00 | 0.00 | 49 | 1023.3 |